TimeMST,TemperatureF,Dew PointF,Humidity,Sea Level PressureIn,VisibilityMPH,Wind Direction,Wind SpeedMPH,Gust SpeedMPH,PrecipitationIn,Events,Conditions,WindDirDegrees,DateUTC
12:53 AM,10.0,1.9,70,30.51,10.0,SW,6.9,-,N/A,,Clear,220,2013-02-16 07:53:00
1:53 AM,7.0,1.0,77,30.51,10.0,SW,8.1,-,N/A,,Clear,220,2013-02-16 08:53:00
2:53 AM,7.0,-0.0,73,30.49,10.0,SSW,6.9,-,N/A,,Clear,210,2013-02-16 09:53:00
3:53 AM,7.0,-0.0,73,30.49,10.0,SSW,5.8,-,N/A,,Clear,200,2013-02-16 10:53:00
4:53 AM,5.0,-0.9,76,30.50,10.0,SSW,6.9,-,N/A,,Clear,200,2013-02-16 11:53:00
5:53 AM,3.9,-0.9,80,30.51,10.0,Calm,Calm,-,N/A,,Clear,0,2013-02-16 12:53:00
6:53 AM,7.0,1.0,77,30.51,10.0,SE,4.6,-,N/A,,Clear,130,2013-02-16 13:53:00
7:53 AM,7.0,-0.0,73,30.53,10.0,South,4.6,-,N/A,,Clear,170,2013-02-16 14:53:00
8:53 AM,16.0,6.1,65,30.50,10.0,Calm,Calm,-,N/A,,Clear,0,2013-02-16 15:53:00
9:53 AM,23.0,7.0,50,30.46,10.0,Calm,Calm,-,N/A,,Clear,0,2013-02-16 16:53:00
10:53 AM,27.0,8.1,45,30.42,10.0,Calm,Calm,-,N/A,,Clear,0,2013-02-16 17:53:00
11:53 AM,37.0,10.0,33,30.35,10.0,North,5.8,-,N/A,,Clear,10,2013-02-16 18:53:00
12:53 PM,36.0,12.9,39,30.32,10.0,NNW,5.8,-,N/A,,Clear,330,2013-02-16 19:53:00
1:53 PM,36.0,12.9,39,30.30,10.0,NW,8.1,-,N/A,,Clear,320,2013-02-16 20:53:00
2:53 PM,39.0,12.9,34,30.26,10.0,North,8.1,-,N/A,,Clear,350,2013-02-16 21:53:00
3:53 PM,37.0,12.9,37,30.26,10.0,Variable,4.6,-,N/A,,Clear,0,2013-02-16 22:53:00
4:53 PM,33.1,12.0,42,30.28,10.0,Calm,Calm,-,N/A,,Clear,0,2013-02-16 23:53:00
5:53 PM,28.0,10.9,49,30.31,10.0,Calm,Calm,-,N/A,,Clear,0,2013-02-17 00:53:00
6:53 PM,21.9,10.0,60,30.33,10.0,South,8.1,-,N/A,,Clear,170,2013-02-17 01:53:00
7:53 PM,23.0,10.9,60,30.33,10.0,SW,4.6,-,N/A,,Clear,220,2013-02-17 02:53:00
8:53 PM,21.9,9.0,58,30.26,10.0,SW,8.1,-,N/A,,Clear,220,2013-02-17 03:53:00
9:53 PM,19.0,7.0,59,30.24,10.0,SW,6.9,-,N/A,,Clear,220,2013-02-17 04:53:00
10:53 PM,19.9,6.1,55,30.19,10.0,SSW,8.1,-,N/A,,Clear,210,2013-02-17 05:53:00
11:53 PM,19.0,5.0,54,30.11,10.0,South,4.6,-,N/A,,Clear,190,2013-02-17 06:53:00